Home   Weather   Newark   Past weeks

Flag for USA Past Weather in Newark, New Jersey, USA — Yesterday and Last 2 Weeks

49 °F

Partly cloudy.

Feels Like: 43 °F
Forecast: 44 / 61 °F
Wind: 15 mph from West

Location: Newark International Airport

Current Time: Oct 22, 2016 at 11:23:29 PM

Latest Report: Oct 22, 2016 at 10:51 PM

Visibility: 10 mi

Pressure: 29.68 "Hg

Humidity: 50%

Dew Point: 31 °F

Location of NewarkLocation

Past Weather in Newark — Graph


Newark Temperature Yesterday

Maximum temperature yesterday: 71 °F (at 4:51 PM)
Minimum temperature yesterday: 61 °F (at 11:51 PM)
Average temperature yesterday: 68 °F

High & Low Weather Summary for the Past Weeks

High86 °F (Oct 19, 3:51 PM)97% (Oct 21, 5:51 AM)30.47 "Hg (Oct 21, 5:51 AM)
Low42 °F (Oct 15, 4:51 AM)20% (Oct 10, 3:51 PM)29.41 "Hg (Oct 22, 7:51 AM)
Average61 °F70%30.07 "Hg
* Reported Oct 7 9:51 PM — Oct 22 9:51 PM, Newark, Weather by CustomWeather, © 2016

Note: Actual official high and low records may vary slightly from our data, if they occured in-between our weather recording intervals... More about our weather records


Newark Weather History for the Previous 24 Hours

Scroll right to see more
Time TempWeatherWind HumidityBarometerVisibility
9:51 PM
Sat, Oct 22
49 °FPassing clouds.20 mph52%29.66 "Hg10 mi
8:51 PM50 °FPassing clouds.22 mph52%29.64 "Hg10 mi
7:51 PM50 °FPartly cloudy.10 mph61%29.62 "Hg10 mi
6:51 PM50 °FMostly cloudy.14 mph66%29.59 "Hg10 mi
5:51 PM48 °FMostly cloudy.16 mph74%29.57 "Hg10 mi
4:51 PM48 °FLight rain. More clouds than sun.25 mph74%29.55 "Hg10 mi
3:51 PM50 °FLight rain. More clouds than sun.23 mph68%29.52 "Hg10 mi
2:51 PM51 °FCloudy.22 mph69%29.49 "Hg10 mi
1:51 PM51 °FMostly cloudy.13 mph74%29.48 "Hg10 mi
12:51 PM49 °FLight rain. More clouds than sun.17 mph77%29.48 "Hg10 mi
11:51 AM48 °FLight rain. More clouds than sun.16 mph83%29.47 "Hg9 mi
10:51 AM49 °FLight rain. Mostly cloudy.20 mph71%29.46 "Hg10 mi
9:51 AM49 °FMore clouds than sun.14 mph80%29.44 "Hg10 mi
8:51 AM49 °FLight rain. Mostly cloudy.13 mph86%29.44 "Hg10 mi
7:51 AM50 °FLight rain. More clouds than sun.12 mph86%29.41 "Hg10 mi
6:51 AM50 °FLight rain. Mostly cloudy.15 mph86%29.42 "Hg10 mi
5:51 AM51 °FLight rain. Mostly cloudy.14 mph89%29.41 "Hg10 mi
4:51 AM52 °FLight rain. Mostly cloudy.15 mph89%29.42 "Hg8 mi
4:02 AM51 °FStrong thunderstorms. Fog.16 mph92%29.43 "Hg3 mi
2:51 AM56 °FLight rain. Mostly cloudy.12 mph75%29.42 "Hg10 mi
1:51 AM57 °FOvercast.15 mph78%29.41 "Hg10 mi
12:51 AM59 °FMostly cloudy.10 mph75%29.41 "Hg10 mi
11:51 PM
Fri, Oct 21
61 °FMostly cloudy.17 mph87%29.43 "Hg10 mi
Weather by CustomWeather, © 2016

See weather overviewHow to use our weather pages